Regional Weather Roundup
Issued by NWS

Home | Current Version | Previous Version | Graphics & Text | Print | Product List | Glossary On
Versions: 1 2 3 4 5 6 7 8 9 10 11 12 13 14 15 16 17 18 19 20 21 22 23 24 25 26 27 28 29 30 31 32 33 34 35 36 37 38 39 40 41 42 43 44 45 46 47 48 49 50
000
ASUS43 KLOT 260908
RWRIL

ILLINOIS REGIONAL WEATHER ROUNDUP
NATIONAL WEATHER SERVICE CHICAGO/ROMEOVILLE IL
400 AM CDT THU APR 26 2018

NOTE: "FAIR" INDICATES FEW OR NO CLOUDS BELOW 12,000 FEET WITH NO
SIGNIFICANT WEATHER AND/OR OBSTRUCTIONS TO VISIBILITY.

* THESE STATIONS ARE NOT UNDER NWS QUALITY CONTROL. THEY ALSO MAY NOT
  REPORT WEATHER SUCH AS PRECIPITATION OR FOG.

ILZ001-002-007-009-015-016-024-261000-
NORTHWEST ILLINOIS

CITY           SKY/WX    TMP DP  RH WIND       PRES   REMARKS
MOLINE         FAIR      36  31  82 E5        29.95F WCI  32
STERLING*      FAIR      36  30  79 CALM      29.97F
SAVANNA*       FAIR      34  31  86 CALM      29.97S
$$

ILZ003-004-008-010-011-017-018-261000-
NORTH CENTRAL ILLINOIS

CITY           SKY/WX    TMP DP  RH WIND       PRES   REMARKS
ROCKFORD       FAIR      34  29  82 CALM      29.98F
FREEPORT*      FAIR      32  28  85 CALM      29.98S
ROCHELLE*      FAIR      29  26  87 CALM      29.97F
DE KALB*       FAIR      36  30  77 SW5       29.96F WCI  32
PERU*          FAIR      39  31  72 CALM      29.98S
$$

ILZ005-006-012>014-019>023-261000-
NORTHEAST ILLINOIS

CITY           SKY/WX    TMP DP  RH WIND       PRES   REMARKS
CHICAGO-OHARE  FAIR      37  29  72 W3        29.95F
CHICAGO-MIDWAY FAIR      36  29  75 NW5       29.96S WCI  32
AURORA         FAIR      30  25  81 NW3       29.96F
LANSING*       FAIR      33  32  94 CALM      29.96S
JOLIET*        FAIR      34  32  92 CALM      29.97S
WAUKEGAN       FAIR      33  30  88 W3        29.96S
DUPAGE AIRPORT FAIR      32  30  92 CALM      29.96S
KANKAKEE*      FAIR      32  29  86 CALM      29.97S
WHEELING       FAIR      36  29  75 CALM      29.98S
MORRIS*        FAIR      33  29  84 NW3       29.96F
ROMEOVILLE*    FAIR      35  32  88 NW3       29.97S
NORTHERLY ISL    N/A     40  31  70 NW2         N/A
$$

LMZ740>746-261000-
SOUTHERN LAKE MICHIGAN

STATION/POSITION SKY/WX   TEMP    WIND        PRES    VSBY  WAVE
                          AIR SEA DIR/SP/G                  HT/PER
                          (F)     (DEG/KT/KT) (MB)    (MI)  (FT/S)
HARRISON CRIB              42     310/  7/  7   N/A
BURNHAM HARBOR             40     310/  1/  3   N/A
CALUMET HARBOR             39     290/  2/  3 1014.2R
BURNS HARBOR               40     330/  3/  7 1015.2R
MICHIGAN CITY              38     330/  9/ 10   N/A
ST. JOSEPH                 40 42   10/  6/  6 1015.3          2/ 6
$$

ILZ025>027-034>036-040-047-049-050-058-095>099-261000-
WEST-CENTRAL ILLINOIS

CITY           SKY/WX    TMP DP  RH WIND       PRES   REMARKS
QUINCY         CLEAR     41  39  93 NW5       29.93S
GALESBURG*     FAIR      42  36  76 E3        29.96F
MACOMB*        CLEAR     38  32  78 CALM      29.97S
JACKSONVILLE*  CLEAR     39  33  78 E7        29.94S WCI  34
PITTSFIELD*    MOCLDY    45  38  78 CALM      29.94F
$$

ILZ028>032-037-038-041>044-048-051>054-059>061-261000-
CENTRAL ILLINOIS

CITY           SKY/WX    TMP DP  RH WIND       PRES   REMARKS
PONTIAC        FAIR      32  31  98 CALM      29.97S
BLOOMINGTON    FAIR      37  29  72 E3        29.96S
DECATUR        FAIR      38  33  82 CALM      29.94F
PEORIA         FAIR      41  31  67 E3        29.96F
LACON*         FAIR      32  28  86 CALM      29.96S
LINCOLN*       FAIR      37  33  87 NE5       29.95S WCI  33
SPRINGFIELD    FAIR      43  34  70 E5        29.95S
TAYLORVILLE    FAIR      44  33  65 NE5       29.94S
$$

ILZ033-039-045-046-055>057-062-063-261000-
EAST-CENTRAL ILLINOIS

CITY           SKY/WX    TMP DP  RH WIND       PRES   REMARKS
CHAMPAIGN      FAIR      37  31  78 NE8       29.94S WCI  31
DANVILLE*      FAIR      32  31  96 N5        29.92S WCI  27
RANTOUL*       FAIR      39  33  78 N3        29.95R
MATTOON        FAIR      42  35  76 E3        29.93S
PARIS*         FAIR      39  33  77 N3        29.95S
$$

ILZ079-100>102-261000-
SOUTHWEST ILLINOIS

CITY           SKY/WX    TMP DP  RH WIND       PRES   REMARKS
ALTON          CLOUDY    50  43  78 CALM      29.92F
BELLEVILLE     CLOUDY    53  53  99 CALM      29.90S FOG
CAHOKIA*       CLOUDY    51  50  96 CALM      29.90F
SPARTA*        CLOUDY    53  53 100 N6        29.91F FOG
$$

ILZ064>066-069>071-074>076-080>082-084>086-088>090-092>094-261000-
SOUTH-CENTRAL ILLINOIS

CITY           SKY/WX    TMP DP  RH WIND       PRES   REMARKS
CARBONDALE     CLOUDY    54  52  93 NE3       29.88F
CAIRO*         CLOUDY    55  53  94 N7        29.85F
EFFINGHAM*     FAIR      47  38  68 CALM      29.95S
MARION         CLOUDY    53  53  99 NE9       29.90F
MT. VERNON     CLOUDY    52  42  69 NE8       29.91F
CENTRALIA*     CLOUDY    54  40  61 NE5       29.91S
SALEM*         FAIR      53  36  53 E3        29.92S
METROPOLIS*    CLOUDY    55  55  97 N5        29.87F FOG
$$

ILZ067-068-072-073-078-083-087-091-261000-
SOUTHEAST ILLINOIS

CITY           SKY/WX    TMP DP  RH WIND       PRES   REMARKS
LAWRENCEVILLE  FAIR      49  36  61 MISG      29.93S
FLORA*         FAIR      51  38  60 NE6       29.93S
FAIRFIELD*     CLOUDY    52  37  57 CALM      29.91S
HARRISBURG*    CLOUDY    53  48  83 NE7       29.89F
ROBINSON*      FAIR      44  35  70 NE3       29.94S
CARMI*         CLOUDY    53  40  62 NE8       29.90S
$$

ABBREVIATIONS USED IN REMARKS
   TC - TEMPERATURE IN CELSIUS
  WCI - WIND CHILL INDEX
   HX - HEAT INDEX
  VSB - VISIBILITY
$$




USA.gov is the U.S. government's official web portal to all federal, state and local government web resources and services.